La Ronge,

6:06 AM CST on July 28, 2017 (GMT -0600)
La Ronge

Weather History for CYVC - January, 2013

Change the Weather History Date:

Wednesday, January 9, 2013

  Actual Average Record
Temperature  
Mean Temperature 12 °F -  
Max Temperature 16 °F 7 °F 35 °F (2002)
Min Temperature 9 °F -14 °F -29 °F (1997)
Degree Days  
Heating Degree Days 52    
Moisture  
Dew Point 10 °F    
Average Humidity 85    
Maximum Humidity 92    
Minimum Humidity 75    
Precipitation  
Precipitation 0.00 in 0.02 in - ()
Sea Level Pressure  
Sea Level Pressure 29.88 in    
Wind  
Wind Speed 5 mph ()    
Max Wind Speed 15 mph    
Max Gust Speed -    
Visibility 14.2 miles    
Events Snow    
Averages and records for this station are not official NWS values.
T = Trace of Precipitation, MM = Missing Value Source: Averaged Metar Reports

Daily Weather History Graph

Daily Weather History Graph

Search for Another Location

Airport or City:

Trip Planner

Search our weather history database for the weather conditions in past years. The results will help you decide how hot, cold, wet, or windy it might be!

Date:

Astronomy

Jan. 09, 2013 Rise Set
Actual Time 9:22 AM CST 4:54 PM CST
Civil Twilight 8:38 AM CST 5:38 PM CST
Nautical Twilight 7:51 AM CST 6:25 PM CST
Astronomical Twilight 7:07 AM CST 7:09 PM CST
Moon 7:05 AM CST (1/9) 2:57 PM CST (1/9)
Length of Visible Light 9h 00m
Length of Day
7h 31m
Waning Crescent, 6% of the Moon is Illuminated
Jan 9
Waning Crescent
Jan 11
New
Jan 18
First Quarter
Jan 26
Full
Feb 3
Last Quarter

Hourly Weather History & Observations

Time (CST) Temp. Windchill Dew Point Humidity Pressure Visibility Wind Dir Wind Speed Gust Speed Precip Events Conditions
12:00 AM 10.4 °F 2.2 °F 6.8 °F 85% 29.91 in 15.0 mi West 4.6 mph - N/A   Overcast
1:00 AM 10.4 °F - 6.8 °F 85% 29.90 in 15.0 mi Calm Calm - N/A   Overcast
1:06 AM - - - N/A% - 15.0 mi Calm Calm - N/A   Unknown
2:00 AM 10.4 °F - 6.8 °F 85% 29.90 in 12.0 mi Calm Calm - N/A Snow Light Snow
3:00 AM 10.4 °F - 6.8 °F 85% 29.90 in 12.0 mi Calm Calm - N/A Snow Light Snow
4:00 AM 10.4 °F 2.2 °F 6.8 °F 85% 29.92 in 12.0 mi South 4.6 mph - N/A Snow Light Snow
5:00 AM 10.4 °F 0.8 °F 6.8 °F 85% 29.90 in 12.0 mi SSE 5.8 mph - N/A Snow Light Snow
6:00 AM 11 °F - 7 °F 78% 29.91 in 12 mi SE 5.8 mph - -   Overcast
6:00 AM 10.4 °F -0.4 °F 6.8 °F 85% 29.91 in 12.0 mi SSE 6.9 mph - N/A Snow Light Snow
7:00 AM 12.2 °F 1.7 °F 8.6 °F 85% 29.91 in 12.0 mi SSE 6.9 mph - N/A Snow Light Snow
8:00 AM 12.2 °F -0.2 °F 8.6 °F 85% 29.91 in 15.0 mi SSE 9.2 mph - N/A Snow Light Snow
9:00 AM 14.0 °F 3.9 °F 10.4 °F 86% 29.92 in 15.0 mi SSE 6.9 mph - N/A Snow Light Snow
10:00 AM 14.0 °F 2.0 °F 10.4 °F 86% 29.89 in 15.0 mi SSE 9.2 mph - N/A Snow Light Snow
11:00 AM 15.8 °F 0.9 °F 12.2 °F 86% 29.89 in 15.0 mi SSE 15.0 mph - N/A Snow Light Snow
12:00 PM 15 °F - 11 °F 75% 29.87 in 15 mi SSE 6.9 mph - - Snow Light Snow
12:00 PM 14.0 °F 3.9 °F 10.4 °F 86% 29.87 in 15.0 mi SSE 6.9 mph - N/A Snow Light Snow
1:00 PM 14.0 °F 2.0 °F 10.4 °F 86% 29.86 in 15.0 mi SSE 9.2 mph - N/A   Overcast
2:00 PM 15.8 °F 2.7 °F 10.4 °F 79% 29.86 in 15.0 mi SSE 11.5 mph - N/A   Overcast
3:00 PM 15.8 °F 5.1 °F 12.2 °F 86% 29.86 in 15.0 mi SE 8.1 mph - N/A   Overcast
4:00 PM 15.8 °F 7.2 °F 12.2 °F 86% 29.86 in 15.0 mi ESE 5.8 mph - N/A   Overcast
5:00 PM 15.8 °F 7.2 °F 12.2 °F 86% 29.85 in 15.0 mi East 5.8 mph - N/A   Overcast
6:00 PM 16 °F - 12 °F 79% 29.84 in 15 mi ENE 4.6 mph - -   Partly Cloudy
6:00 PM 15.8 °F 8.6 °F 12.2 °F 86% 29.84 in 15.0 mi ENE 4.6 mph - N/A   Overcast
7:00 PM 14.0 °F 2.9 °F 10.4 °F 86% 29.85 in 15.0 mi NE 8.1 mph - N/A   Overcast
9:00 PM 14.0 °F -1.4 °F 10.4 °F 86% 29.83 in 15.0 mi ENE 15.0 mph - N/A   Overcast
10:00 PM 12.2 °F -3.1 °F 10.4 °F 92% 29.85 in 15.0 mi ENE 13.8 mph - N/A   Overcast
11:00 PM 12.2 °F -1.8 °F 8.6 °F 85% 29.86 in 15.0 mi NE 11.5 mph - N/A   Overcast